• En España
  • Lista de países
  • Para 7 días
  • Temperatura del agua
  • Mapa Satelital
  • El tiempo en el mapa
  • Informadores
  • user-avatar
    Iniciar sesión

    Tiempo cada hora Rio Maior

    Hoy, 25 Noviembre, Sábado

    Tiempo Temperatura Precipitaciones Viento Presión Humedad
    00:00 +14°C° 0 mm 1 mps 757 mmHg 84%
    01:00 +14°C° 0 mm 1 mps 757 mmHg 84%
    02:00 +13°C° 0 mm 1 mps 757 mmHg 84%
    03:00 +14°C° 0 mm 1 mps 757 mmHg 82%
    04:00 +14°C° 0 mm 1 mps 758 mmHg 80%
    05:00 +14°C° 0 mm 1 mps 758 mmHg 78%
    06:00 +15°C° 0 mm 1 mps 758 mmHg 75%
    07:00 +15°C° 0 mm 1 mps 758 mmHg 73%
    08:00 +16°C° 0 mm 1 mps 759 mmHg 70%
    09:00 +18°C° 0 mm 1 mps 759 mmHg 66%
    10:00 +20°C° 0 mm 1 mps 759 mmHg 61%
    11:00 +21°C° 0 mm 1 mps 760 mmHg 56%
    12:00 +22°C° 0 mm 1 mps 759 mmHg 57%
    13:00 +22°C° 0 mm 1 mps 759 mmHg 58%
    14:00 +21°C° 0 mm 2 mps 759 mmHg 58%
    15:00 +19°C° 0 mm 2 mps 759 mmHg 66%
    16:00 +18°C° 0 mm 2 mps 759 mmHg 74%
    17:00 +16°C° 0 mm 2 mps 759 mmHg 81%
    18:00 +16°C° 0 mm 2 mps 760 mmHg 85%
    19:00 +15°C° 0 mm 2 mps 760 mmHg 88%
    20:00 +15°C° 0 mm 1 mps 760 mmHg 91%
    21:00 +14°C° 0 mm 1 mps 761 mmHg 91%
    22:00 +14°C° 0 mm 1 mps 761 mmHg 92%
    23:00 +14°C° 0 mm 1 mps 761 mmHg 92%

    Mañana, 26 Noviembre, Domingo

    Tiempo Temperatura Precipitaciones Viento Presión Humedad
    00:00 +14°C° 0 mm 2 mps 761 mmHg 91%
    01:00 +14°C° 0 mm 2 mps 761 mmHg 90%
    02:00 +14°C° 0 mm 2 mps 762 mmHg 90%
    03:00 +13°C° 0 mm 2 mps 762 mmHg 87%
    04:00 +13°C° 0 mm 2 mps 762 mmHg 85%
    05:00 +12°C° 0 mm 3 mps 762 mmHg 82%
    06:00 +13°C° 0 mm 3 mps 762 mmHg 77%
    07:00 +13°C° 0 mm 4 mps 763 mmHg 71%
    08:00 +13°C° 0 mm 4 mps 763 mmHg 65%
    09:00 +15°C° 0 mm 4 mps 763 mmHg 60%
    10:00 +18°C° 0 mm 4 mps 764 mmHg 55%
    11:00 +19°C° 0 mm 4 mps 764 mmHg 49%
    12:00 +20°C° 0 mm 4 mps 763 mmHg 49%
    13:00 +20°C° 0 mm 4 mps 763 mmHg 49%
    14:00 +20°C° 0 mm 3 mps 763 mmHg 49%
    15:00 +19°C° 0 mm 3 mps 763 mmHg 53%
    16:00 +17°C° 0 mm 3 mps 763 mmHg 57%
    17:00 +16°C° 0 mm 2 mps 763 mmHg 60%
    18:00 +16°C° 0 mm 3 mps 763 mmHg 61%
    19:00 +14°C° 0 mm 3 mps 764 mmHg 61%
    20:00 +13°C° 0 mm 4 mps 764 mmHg 61%
    21:00 +13°C° 0 mm 4 mps 764 mmHg 60%
    22:00 +13°C° 0 mm 4 mps 764 mmHg 58%
    23:00 +13°C° 0 mm 4 mps 763 mmHg 57%

    Pasado mañana, 27 Noviembre, Lunes

    Tiempo Temperatura Precipitaciones Viento Presión Humedad
    00:00 +13°C° 0 mm 4 mps 763 mmHg 54%
    01:00 +13°C° 0 mm 4 mps 763 mmHg 52%
    02:00 +12°C° 0 mm 4 mps 763 mmHg 49%
    03:00 +12°C° 0,2 mm 4 mps 763 mmHg 49%
    04:00 +12°C° 0,2 mm 3 mps 763 mmHg 49%
    05:00 +12°C° 0,2 mm 3 mps 763 mmHg 49%
    06:00 +12°C° 0,1 mm 3 mps 763 mmHg 48%
    07:00 +12°C° 0,1 mm 4 mps 763 mmHg 48%
    08:00 +12°C° 0,1 mm 4 mps 763 mmHg 47%
    09:00 +13°C° 0 mm 4 mps 763 mmHg 46%
    10:00 +14°C° 0 mm 3 mps 763 mmHg 45%
    11:00 +16°C° 0 mm 3 mps 763 mmHg 44%
    12:00 +17°C° 0 mm 3 mps 762 mmHg 45%
    13:00 +18°C° 0 mm 3 mps 762 mmHg 47%
    14:00 +18°C° 0 mm 2 mps 761 mmHg 49%
    15:00 +17°C° 0 mm 2 mps 761 mmHg 51%
    16:00 +16°C° 0 mm 2 mps 761 mmHg 54%
    17:00 +15°C° 0 mm 2 mps 760 mmHg 56%
    18:00 +15°C° 0,2 mm 2 mps 761 mmHg 57%
    19:00 +14°C° 0,2 mm 2 mps 761 mmHg 58%
    20:00 +14°C° 0,2 mm 2 mps 761 mmHg 59%
    21:00 +13°C° 0,7 mm 3 mps 760 mmHg 63%
    22:00 +13°C° 0,7 mm 3 mps 760 mmHg 68%
    23:00 +12°C° 0,7 mm 3 mps 760 mmHg 72%

    28 Noviembre, Martes

    Tiempo Temperatura Precipitaciones Viento Presión Humedad
    00:00 +12°C° 0,2 mm 3 mps 759 mmHg 72%
    01:00 +12°C° 0,2 mm 4 mps 759 mmHg 73%
    02:00 +12°C° 0,2 mm 4 mps 758 mmHg 73%
    03:00 +12°C° 0,2 mm 4 mps 758 mmHg 74%
    04:00 +12°C° 0,2 mm 4 mps 757 mmHg 74%
    05:00 +12°C° 0,2 mm 4 mps 757 mmHg 74%
    06:00 +13°C° 0,1 mm 5 mps 757 mmHg 74%
    07:00 +13°C° 0,1 mm 5 mps 756 mmHg 73%
    08:00 +13°C° 0,1 mm 5 mps 756 mmHg 72%
    09:00 +14°C° 0,2 mm 5 mps 756 mmHg 72%
    10:00 +14°C° 0,2 mm 5 mps 755 mmHg 71%
    11:00 +15°C° 0,2 mm 5 mps 755 mmHg 71%
    12:00 +15°C° 1 mm 5 mps 754 mmHg 75%
    13:00 +15°C° 1 mm 5 mps 753 mmHg 80%
    14:00 +15°C° 1 mm 4 mps 752 mmHg 84%
    15:00 +15°C° 1,5 mm 4 mps 752 mmHg 87%
    16:00 +14°C° 1,5 mm 4 mps 751 mmHg 90%
    17:00 +14°C° 1,5 mm 4 mps 751 mmHg 93%
    18:00 +14°C° 1,1 mm 3 mps 751 mmHg 94%
    19:00 +14°C° 1,1 mm 3 mps 750 mmHg 95%
    20:00 +14°C° 1,1 mm 3 mps 750 mmHg 95%
    21:00 +15°C° 0,9 mm 2 mps 750 mmHg 96%
    22:00 +15°C° 0,9 mm 2 mps 749 mmHg 96%
    23:00 +15°C° 0,9 mm 2 mps 749 mmHg 96%

    29 Noviembre, Miércoles

    Tiempo Temperatura Precipitaciones Viento Presión Humedad
    00:00 +15°C° 0,3 mm 2 mps 748 mmHg 96%
    01:00 +15°C° 0,3 mm 2 mps 748 mmHg 96%
    02:00 +15°C° 0,3 mm 2 mps 747 mmHg 96%
    03:00 +14°C° 0,4 mm 3 mps 747 mmHg 96%
    04:00 +14°C° 0,4 mm 3 mps 747 mmHg 96%
    05:00 +13°C° 0,4 mm 4 mps 747 mmHg 96%
    06:00 +13°C° 0,1 mm 4 mps 747 mmHg 94%
    07:00 +14°C° 0,1 mm 5 mps 747 mmHg 92%
    08:00 +14°C° 0,1 mm 5 mps 748 mmHg 90%
    09:00 +14°C° 0 mm 5 mps 748 mmHg 85%
    10:00 +15°C° 0 mm 5 mps 748 mmHg 79%
    11:00 +16°C° 0 mm 5 mps 748 mmHg 73%
    12:00 +16°C° 0 mm 5 mps 748 mmHg 69%
    13:00 +16°C° 0 mm 5 mps 748 mmHg 65%
    14:00 +16°C° 0 mm 5 mps 748 mmHg 61%
    15:00 +15°C° 0 mm 5 mps 748 mmHg 64%
    16:00 +13°C° 0 mm 5 mps 749 mmHg 67%
    17:00 +12°C° 0 mm 5 mps 749 mmHg 70%
    18:00 +11°C° 0 mm 4 mps 750 mmHg 70%
    19:00 +11°C° 0 mm 4 mps 751 mmHg 71%
    20:00 +10°C° 0 mm 4 mps 751 mmHg 71%
    21:00 +10°C° 0 mm 4 mps 751 mmHg 71%
    22:00 +8°C° 0 mm 4 mps 752 mmHg 70%
    23:00 +8°C° 0 mm 4 mps 752 mmHg 70%

    30 Noviembre, Jueves

    Tiempo Temperatura Precipitaciones Viento Presión Humedad
    00:00 +8°C° 0 mm 3 mps 752 mmHg 69%
    01:00 +8°C° 0 mm 3 mps 752 mmHg 68%
    02:00 +7°C° 0 mm 3 mps 753 mmHg 68%
    03:00 +7°C° 0 mm 3 mps 753 mmHg 67%
    04:00 +7°C° 0 mm 3 mps 753 mmHg 66%
    05:00 +5°C° 0 mm 3 mps 754 mmHg 65%
    06:00 +7°C° 0 mm 3 mps 754 mmHg 62%
    07:00 +7°C° 0 mm 3 mps 755 mmHg 58%
    08:00 +8°C° 0 mm 3 mps 756 mmHg 54%
    09:00 +10°C° 0 mm 3 mps 756 mmHg 47%
    10:00 +11°C° 0 mm 4 mps 757 mmHg 40%
    11:00 +13°C° 0 mm 4 mps 757 mmHg 33%
    12:00 +13°C° 0 mm 4 mps 757 mmHg 32%
    13:00 +14°C° 0 mm 4 mps 757 mmHg 32%
    14:00 +14°C° 0 mm 4 mps 757 mmHg 31%
    15:00 +12°C° 0 mm 4 mps 757 mmHg 37%
    16:00 +10°C° 0 mm 4 mps 758 mmHg 44%
    17:00 +9°C° 0 mm 3 mps 758 mmHg 50%
    18:00 +8°C° 0 mm 3 mps 759 mmHg 54%
    19:00 +7°C° 0 mm 3 mps 759 mmHg 58%
    20:00 +7°C° 0 mm 3 mps 760 mmHg 62%
    21:00 +5°C° 0 mm 3 mps 760 mmHg 62%
    22:00 +5°C° 0 mm 3 mps 760 mmHg 63%
    23:00 +6°C° 0 mm 2 mps 760 mmHg 64%
    Mostrar más